SV2MJJ Weather Reports


Display with metric or nautical units.
time (UTC)temp
F
wind
direction
speed
MPH
gust
MPH
rain 1hr
in
rain 24hr
in
rain mn
in
humidity
%
barometer
mb
20260507172137 67 286 0.0 0.0 0.00 0.00 0.00 76 1012.5
20260507172102 67 286 0.0 0.0 0.00 0.00 0.00 76 1012.5
20260507171935 67 286 0.0 0.0 0.00 0.00 0.00 76 1012.4
20260507171819 67 286 0.0 0.0 0.00 0.00 0.00 76 1012.4
20260507171741 67 286 0.0 0.0 0.00 0.00 0.00 76 1012.4
20260507171724 67 286 0.0 0.0 0.00 0.00 0.00 76 1012.4
20260507171333 67 286 0.0 0.0 0.00 0.00 0.00 76 1012.4
20260507170936 67 286 0.0 0.0 0.00 0.00 0.00 76 1012.4
20260507170736 67 286 0.0 0.0 0.00 0.00 0.00 75 1012.4
20260507170602 67 286 0.0 0.0 0.00 0.00 0.00 75 1012.4
20260507170536 67 286 0.0 0.0 0.00 0.00 0.00 75 1012.4
20260507170335 67 286 0.0 0.0 0.00 0.00 0.00 74 1012.5
20260507170123 67 286 0.0 0.0 0.00 0.00 0.00 74 1012.4
20260507170046 67 286 0.0 0.0 0.00 0.00 0.00 74 1012.5
20260507165602 67 286 0.0 0.0 0.00 0.00 0.00 74 1012.5
20260507165536 67 286 0.0 0.0 0.00 0.00 0.00 75 1012.5
20260507165425 67 286 0.0 0.0 0.00 0.00 0.00 74 1012.5
20260507165329 67 286 0.0 0.0 0.00 0.00 0.00 74 1012.5
20260507164954 67 286 0.0 0.0 0.00 0.00 0.00 74 1012.6
20260507164851 67 286 0.0 0.0 0.00 0.00 0.00 74 1012.6
20260507164541 67 286 0.0 0.0 0.00 0.00 0.00 74 1012.7
20260507164442 67 286 0.0 0.0 0.00 0.00 0.00 73 1012.7
20260507164355 67 309 0.0 0.0 0.00 0.00 0.00 73 1012.7
20260507164048 67 327 0.0 0.0 0.00 0.00 0.00 74 1012.5
20260507163603 67 327 0.0 0.0 0.00 0.00 0.00 74 1012.6
20260507163535 67 327 0.0 0.0 0.00 0.00 0.00 74 1012.6
20260507163333 67 327 0.0 0.0 0.00 0.00 0.00 73 1012.5
20260507163133 67 327 0.0 2.0 0.00 0.00 0.00 73 1012.5
20260507163100 67 327 0.0 2.0 0.00 0.00 0.00 73 1012.6
20260507162932 67 321 0.0 2.0 0.00 0.00 0.00 73 1012.6
20260507162735 67 321 0.0 2.0 0.00 0.00 0.00 73 1012.7
20260507162652 67 304 0.0 2.0 0.00 0.00 0.00 73 1012.7
20260507162634 67 311 0.0 2.0 0.00 0.00 0.00 72 1012.7
20260507162532 68 311 0.0 2.0 0.00 0.00 0.00 72 1012.7
20260507162217 68 30 0.0 0.0 0.00 0.00 0.00 72 1012.6
20260507161724 68 31 0.0 1.0 0.00 0.00 0.00 72 1012.5
20260507161603 68 30 0.0 1.0 0.00 0.00 0.00 72 1012.5
20260507161523 68 30 0.0 1.0 0.00 0.00 0.00 72 1012.5
20260507161323 68 30 0.0 1.0 0.00 0.00 0.00 72 1012.5
20260507161126 68 30 0.0 1.0 0.00 0.00 0.00 72 1012.5
20260507161101 68 30 0.0 1.0 0.00 0.00 0.00 71 1012.5
20260507160948 68 93 0.0 0.0 0.00 0.00 0.00 72 1012.5
20260507160846 68 94 0.0 0.0 0.00 0.00 0.00 71 1012.5
20260507160524 68 95 0.0 0.0 0.00 0.00 0.00 71 1012.5
20260507160324 68 94 0.0 0.0 0.00 0.00 0.00 71 1012.6
20260507160120 68 95 0.0 0.0 0.00 0.00 0.00 71 1012.6
20260507155918 68 95 0.0 0.0 0.00 0.00 0.00 71 1012.7
20260507155717 69 95 0.0 0.0 0.00 0.00 0.00 72 1012.7
20260507155602 69 95 0.0 0.0 0.00 0.00 0.00 72 1012.6
20260507155513 69 95 0.0 0.0 0.00 0.00 0.00 72 1012.6
20260507155419 69 95 0.0 0.0 0.00 0.00 0.00 72 1012.5
20260507155101 69 95 0.0 0.0 0.00 0.00 0.00 72 1012.6
20260507154914 69 95 0.0 0.0 0.00 0.00 0.00 72 1012.7
20260507154715 69 95 0.0 0.0 0.00 0.00 0.00 72 1012.8
20260507154604 69 95 0.0 0.0 0.00 0.00 0.00 72 1012.8
20260507154514 69 95 0.0 0.0 0.00 0.00 0.00 71 1012.8
20260507154314 69 95 0.0 0.0 0.00 0.00 0.00 71 1012.9
20260507154100 69 95 0.0 0.0 0.00 0.00 0.00 71 1012.8
20260507153912 69 95 0.0 0.0 0.00 0.00 0.00 71 1012.8
20260507153712 69 95 0.0 0.0 0.00 0.00 0.00 70 1012.8
20260507153602 69 95 0.0 0.0 0.00 0.00 0.00 70 1012.7
20260507153514 69 96 0.0 0.0 0.00 0.00 0.00 70 1012.7
20260507153314 69 95 0.0 0.0 0.00 0.00 0.00 70 1012.7
20260507153200 69 95 0.0 0.0 0.00 0.00 0.00 70 1012.7
20260507153150 69 96 0.0 0.0 0.00 0.00 0.00 70 1012.8
20260507153033 69 95 0.0 0.0 0.00 0.00 0.00 70 1012.8
20260507152604 69 96 0.0 0.0 0.00 0.00 0.00 70 1012.9
20260507152517 69 96 0.0 0.0 0.00 0.00 0.00 70 1013.0
20260507152427 69 96 0.0 0.0 0.00 0.00 0.00 70 1013.0
20260507152316 69 96 0.0 0.0 0.00 0.00 0.00 69 1012.8
20260507151602 69 96 0.0 0.0 0.00 0.00 0.00 68 1012.9
20260507151508 69 95 0.0 1.0 0.00 0.00 0.00 68 1012.9
20260507151415 69 96 0.0 1.0 0.00 0.00 0.00 68 1013.1
20260507151105 69 96 0.0 1.0 0.00 0.00 0.00 68 1013.1
20260507150908 69 96 0.0 3.0 0.00 0.00 0.00 68 1013.0
20260507150707 69 96 0.0 3.0 0.00 0.00 0.00 68 1013.1
20260507150601 69 95 0.0 4.0 0.00 0.00 0.00 68 1013.1
20260507150507 69 96 0.0 4.0 0.00 0.00 0.00 68 1013.0
20260507150306 69 96 0.0 4.0 0.00 0.00 0.00 68 1013.1
20260507150113 69 96 0.0 4.0 0.00 0.00 0.00 68 1013.1
20260507145909 69 96 0.0 4.0 0.00 0.00 0.00 68 1013.0
20260507145705 69 96 0.0 4.0 0.00 0.00 0.00 68 1013.0
20260507145601 69 95 0.0 0.0 0.00 0.00 0.00 68 1013.0
20260507145507 69 95 0.0 0.0 0.00 0.00 0.00 68 1013.0
20260507145307 69 95 0.0 0.0 0.00 0.00 0.00 68 1012.9
20260507145105 69 95 0.0 0.0 0.00 0.00 0.00 67 1013.0
20260507144906 69 95 0.0 0.0 0.00 0.00 0.00 67 1013.1
20260507144707 69 95 0.0 0.0 0.00 0.00 0.00 68 1013.0
20260507144602 69 95 0.0 0.0 0.00 0.00 0.00 67 1012.9
20260507144508 69 95 0.0 0.0 0.00 0.00 0.00 68 1012.9
20260507144337 69 95 0.0 0.0 0.00 0.00 0.00 68 1012.9
20260507144234 69 95 0.0 0.0 0.00 0.00 0.00 68 1013.0
20260507144146 69 95 0.0 0.0 0.00 0.00 0.00 68 1013.0
20260507143506 69 95 0.0 0.0 0.00 0.00 0.00 68 1013.2
20260507143309 69 95 0.0 0.0 0.00 0.00 0.00 68 1013.2
20260507143105 69 95 0.0 0.0 0.00 0.00 0.00 69 1013.2
20260507142909 69 95 0.0 0.0 0.00 0.00 0.00 69 1013.3
20260507142705 69 95 1.0 4.0 0.00 0.00 0.00 69 1013.3
20260507142601 68 95 1.0 5.0 0.00 0.00 0.00 69 1013.2
20260507142512 68 95 2.0 5.0 0.00 0.00 0.00 69 1013.3
20260507142423 68 138 2.0 6.0 0.00 0.00 0.00 69 1013.1
20260507142109 68 138 2.0 6.0 0.00 0.00 0.00 69 1013.1
20260507142014 68 138 2.0 6.0 0.00 0.00 0.00 68 1013.1
20260507141601 69 138 1.0 6.0 0.00 0.00 0.00 67 1013.1
20260507141507 69 130 0.0 6.0 0.00 0.00 0.00 68 1013.0
20260507141312 69 101 0.0 3.0 0.00 0.00 0.00 68 1013.0
20260507141209 69 82 0.0 0.0 0.00 0.00 0.00 67 1013.0
20260507140708 69 82 0.0 5.0 0.00 0.00 0.00 67 1013.1
20260507140601 69 82 0.0 5.0 0.00 0.00 0.00 67 1013.1
20260507140508 69 82 0.0 5.0 0.00 0.00 0.00 67 1013.1
20260507140416 69 82 0.0 5.0 0.00 0.00 0.00 66 1013.1
20260507140106 69 112 0.0 5.0 0.00 0.00 0.00 66 1013.2
20260507135907 70 131 0.0 0.0 0.00 0.00 0.00 66 1013.2
20260507135705 70 107 0.0 0.0 0.00 0.00 0.00 65 1013.2
20260507135631 70 107 0.0 0.0 0.00 0.00 0.00 66 1013.2
20260507135604 70 107 0.0 0.0 0.00 0.00 0.00 66 1013.2
20260507135106 70 107 0.0 0.0 0.00 0.00 0.00 66 1013.1
20260507134909 70 107 0.0 0.0 0.00 0.00 0.00 66 1013.2
20260507134706 70 107 0.0 0.0 0.00 0.00 0.00 65 1013.1
20260507134603 70 107 0.0 0.0 0.00 0.00 0.00 65 1013.1
20260507134510 70 107 0.0 0.0 0.00 0.00 0.00 65 1013.1
20260507134421 70 107 0.0 0.0 0.00 0.00 0.00 65 1013.2
20260507134106 70 107 0.0 0.0 0.00 0.00 0.00 66 1013.2
20260507133908 70 107 0.0 2.0 0.00 0.00 0.00 65 1013.1
20260507133708 69 81 0.0 4.0 0.00 0.00 0.00 66 1013.1
20260507133603 69 81 0.0 4.0 0.00 0.00 0.00 66 1013.1
20260507133505 69 81 0.0 4.0 0.00 0.00 0.00 66 1013.0
20260507133307 69 84 0.0 4.0 0.00 0.00 0.00 66 1013.1
20260507133106 69 84 0.0 4.0 0.00 0.00 0.00 66 1013.1
20260507132906 69 110 0.0 4.0 0.00 0.00 0.00 66 1013.1
20260507132710 69 101 0.0 3.0 0.00 0.00 0.00 66 1013.2
20260507132603 69 101 0.0 5.0 0.00 0.00 0.00 66 1013.3
20260507132507 69 101 0.0 5.0 0.00 0.00 0.00 66 1013.3
20260507132415 69 101 1.0 5.0 0.00 0.00 0.00 66 1013.2
20260507132104 69 111 1.0 5.0 0.00 0.00 0.00 66 1013.3
20260507131909 69 148 2.0 7.0 0.00 0.00 0.00 66 1013.2
20260507131814 69 138 1.0 7.0 0.00 0.00 0.00 65 1013.2
20260507131744 69 128 1.0 7.0 0.00 0.00 0.00 65 1013.1
20260507131409 70 136 1.0 7.0 0.00 0.00 0.00 65 1013.2
20260507131319 70 149 0.0 7.0 0.00 0.00 0.00 65 1013.2
20260507130901 70 131 0.0 3.0 0.00 0.00 0.00 66 1013.2
20260507130701 70 68 0.0 2.0 0.00 0.00 0.00 67 1013.2
20260507130602 70 57 0.0 2.0 0.00 0.00 0.00 68 1013.2
20260507130500 69 107 0.0 2.0 0.00 0.00 0.00 68 1013.2
20260507130302 69 92 0.0 6.0 0.00 0.00 0.00 68 1013.3
20260507130112 69 45 0.0 6.0 0.00 0.00 0.00 69 1013.2
20260507125859 69 167 1.0 6.0 0.00 0.00 0.00 69 1013.3
20260507125711 68 94 1.0 6.0 0.00 0.00 0.00 70 1013.3
20260507125644 68 74 1.0 6.0 0.00 0.00 0.00 71 1013.3
20260507125609 68 116 1.0 6.0 0.00 0.00 0.00 71 1013.3
20260507125521 68 116 2.0 7.0 0.00 0.00 0.00 71 1013.2
20260507125214 68 120 2.0 7.0 0.00 0.00 0.00 71 1013.2
20260507124649 68 140 2.0 7.0 0.00 0.00 0.00 71 1013.4
20260507124600 68 124 1.0 7.0 0.00 0.00 0.00 71 1013.4
20260507124445 68 117 1.0 7.0 0.00 0.00 0.00 71 1013.4
20260507124246 68 126 0.0 7.0 0.00 0.00 0.00 72 1013.4
20260507124103 68 118 1.0 6.0 0.00 0.00 0.00 72 1013.4
20260507124047 68 124 1.0 6.0 0.00 0.00 0.00 72 1013.4
20260507123847 67 76 1.0 8.0 0.00 0.00 0.00 72 1013.4
20260507123647 67 67 1.0 8.0 0.00 0.00 0.00 72 1013.4
20260507123602 67 60 1.0 8.0 0.00 0.00 0.00 72 1013.4
20260507123449 67 60 1.0 8.0 0.00 0.00 0.00 72 1013.5
20260507123357 67 115 1.0 8.0 0.00 0.00 0.00 71 1013.5
20260507123043 68 126 0.0 8.0 0.00 0.00 0.00 71 1013.6
20260507122909 67 69 0.0 4.0 0.00 0.00 0.00 71 1013.7
20260507122646 68 102 0.0 4.0 0.00 0.00 0.00 71 1013.7
20260507122601 68 136 0.0 4.0 0.00 0.00 0.00 71 1013.7
20260507122437 68 44 0.0 4.0 0.00 0.00 0.00 70 1013.7
20260507122238 67 123 0.0 4.0 0.00 0.00 0.00 71 1013.8
20260507122105 68 126 0.0 4.0 0.00 0.00 0.00 72 1013.7
20260507122038 68 124 0.0 4.0 0.00 0.00 0.00 73 1013.7
20260507121838 67 105 0.0 0.0 0.00 0.00 0.00 73 1013.8
20260507121640 67 105 0.0 0.0 0.00 0.00 0.00 74 1013.9
20260507121602 67 105 0.0 0.0 0.00 0.00 0.00 74 1013.9
20260507121434 67 105 0.0 0.0 0.00 0.00 0.00 74 1013.9
20260507121236 67 109 0.0 0.0 0.00 0.00 0.00 75 1013.9
20260507121102 67 109 0.0 0.0 0.00 0.00 0.00 75 1014.0
20260507121036 67 109 0.0 0.0 0.00 0.00 0.00 75 1014.0
20260507120853 67 109 0.0 0.0 0.00 0.00 0.00 75 1014.1
20260507120803 67 46 0.0 0.0 0.00 0.00 0.00 76 1014.0
20260507120739 66 46 0.0 0.0 0.00 0.00 0.00 75 1014.1
20260507120400 66 46 0.0 0.0 0.00 0.00 0.00 76 1014.1
20260507120315 66 45 0.0 0.0 0.00 0.00 0.00 76 1014.1
20260507115853 66 46 0.0 0.0 0.00 0.00 0.00 76 1014.1
20260507115637 66 46 1.0 7.0 0.00 0.00 0.00 76 1014.1
20260507115601 66 46 1.0 8.0 0.00 0.00 0.00 76 1014.0
20260507115434 66 46 1.0 8.0 0.00 0.00 0.00 76 1014.0
20260507115234 66 46 1.0 8.0 0.00 0.00 0.00 76 1013.9
20260507115121 66 46 1.0 8.0 0.00 0.00 0.00 76 1013.8
20260507115102 66 46 1.0 8.0 0.00 0.00 0.00 76 1013.8
20260507115001 66 45 2.0 8.0 0.00 0.00 0.00 76 1013.8
20260507114906 66 155 2.0 9.0 0.00 0.00 0.00 76 1013.7
20260507114555 66 90 2.0 9.0 0.00 0.00 0.00 76 1013.5
20260507114504 66 116 2.0 9.0 0.00 0.00 0.00 76 1013.3
20260507114423 66 106 3.0 9.0 0.00 0.00 0.00 76 1013.4
20260507114056 66 134 3.0 9.0 0.00 0.00 0.00 76 1013.6
20260507114008 66 97 2.0 7.0 0.00 0.00 0.00 76 1014.0
20260507113657 66 146 2.0 7.0 0.00 0.00 0.00 75 1014.0
20260507113611 66 113 2.0 6.0 0.00 0.00 0.00 76 1014.1
20260507113534 66 119 1.0 6.0 0.00 0.00 0.00 75 1014.1
20260507113517 66 129 1.0 6.0 0.00 0.00 0.00 75 1014.1
20260507113417 66 123 1.0 6.0 0.00 0.00 0.00 74 1014.3
20260507112749 66 117 1.0 6.0 0.00 0.00 0.00 75 1014.4
20260507112139 67 109 0.0 1.0 0.00 0.00 0.00 76 1014.5
20260507112036 67 111 0.0 1.0 0.00 0.00 0.00 76 1014.5
20260507111948 67 132 0.0 0.0 0.00 0.00 0.00 77 1014.5
20260507111229 67 351 0.0 0.0 0.00 0.00 0.00 79 1014.5
20260507111102 67 351 0.0 0.0 0.00 0.00 0.00 79 1014.5
20260507111027 67 351 0.0 0.0 0.00 0.00 0.00 79 1014.5
20260507110917 66 351 0.0 0.0 0.00 0.00 0.00 79 1014.5
20260507110829 66 351 0.0 0.0 0.00 0.00 0.00 79 1014.4
20260507110427 66 351 0.0 0.0 0.00 0.00 0.00 79 1014.5
20260507110227 66 351 0.0 3.0 0.00 0.00 0.00 78 1014.6
20260507110110 66 351 0.0 4.0 0.00 0.00 0.00 78 1014.6
20260507110025 66 351 0.0 4.0 0.00 0.00 0.00 78 1014.6
20260507105836 66 351 0.0 4.0 0.00 0.00 0.00 78 1014.6
20260507105609 66 351 0.0 4.0 0.00 0.00 0.00 77 1014.6
20260507105419 66 351 0.0 4.0 0.00 0.00 0.00 76 1014.6
20260507105221 67 351 0.0 3.0 0.00 0.00 0.00 76 1014.6
20260507105141 67 351 0.0 0.0 0.00 0.00 0.00 76 1014.6
20260507105118 67 338 0.0 0.0 0.00 0.00 0.00 76 1014.6
20260507104602 67 1 0.0 0.0 0.00 0.00 0.00 76 1014.6
20260507104419 67 1 0.0 4.0 0.00 0.00 0.00 75 1014.6
20260507104324 67 1 0.0 4.0 0.00 0.00 0.00 74 1014.6
20260507104253 67 1 0.0 4.0 0.00 0.00 0.00 74 1014.7
20260507103813 67 5 0.0 4.0 0.00 0.00 0.00 72 1014.6
20260507103604 67 13 0.0 4.0 0.00 0.00 0.00 72 1014.4
20260507103411 67 18 0.0 4.0 0.00 0.00 0.00 72 1014.5
20260507103211 67 18 0.0 4.0 0.00 0.00 0.00 72 1014.4
20260507103102 67 18 0.0 4.0 0.00 0.00 0.00 72 1014.4
20260507103011 67 18 0.0 4.0 0.00 0.00 0.00 72 1014.4
20260507102813 67 18 0.0 4.0 0.00 0.00 0.00 72 1014.3
20260507102600 67 18 1.0 4.0 0.00 0.00 0.00 72 1014.4
20260507102410 67 18 0.0 4.0 0.00 0.00 0.00 72 1014.4
20260507102211 67 18 0.0 4.0 0.00 0.00 0.00 71 1014.5
20260507102102 67 18 0.0 4.0 0.00 0.00 0.00 70 1014.5
20260507102010 67 18 0.0 4.0 0.00 0.00 0.00 70 1014.6
20260507101812 67 22 0.0 4.0 0.00 0.00 0.00 70 1014.5
20260507101614 67 20 0.0 0.0 0.00 0.00 0.00 70 1014.6
20260507101602 68 20 0.0 0.0 0.00 0.00 0.00 70 1014.6
20260507101409 68 169 0.0 0.0 0.00 0.00 0.00 70 1014.5
20260507101319 68 169 0.0 0.0 0.00 0.00 0.00 70 1014.5
20260507101251 68 169 0.0 0.0 0.00 0.00 0.00 70 1014.5
20260507100914 68 169 0.0 0.0 0.00 0.00 0.00 69 1014.5
20260507100606 68 169 0.0 0.0 0.00 0.00 0.00 70 1014.4
20260507100417 68 169 0.0 0.0 0.00 0.00 0.00 69 1014.4
20260507100327 68 169 0.0 0.0 0.00 0.00 0.00 69 1014.4
20260507100300 68 169 0.0 0.0 0.00 0.00 0.00 69 1014.3
20260507095917 68 169 0.0 0.0 0.00 0.00 0.00 69 1014.2
20260507095822 68 169 0.0 0.0 0.00 0.00 0.00 69 1014.2
20260507095700 68 169 0.0 0.0 0.00 0.00 0.00 69 1014.2
20260507095335 68 169 0.0 0.0 0.00 0.00 0.00 69 1014.2
20260507095305 68 169 0.0 0.0 0.00 0.00 0.00 69 1014.2
20260507095214 68 169 0.0 0.0 0.00 0.00 0.00 68 1014.2
20260507095127 68 169 0.0 0.0 0.00 0.00 0.00 68 1014.2
20260507094522 68 169 0.0 0.0 0.00 0.00 0.00 67 1014.2
20260507093912 68 169 0.0 0.0 0.00 0.00 0.00 66 1014.2
20260507093606 68 169 0.0 0.0 0.00 0.00 0.00 65 1014.3
20260507093406 68 169 0.0 0.0 0.00 0.00 0.00 66 1014.2
20260507093206 68 169 0.0 0.0 0.00 0.00 0.00 66 1014.2
20260507093103 68 169 0.0 0.0 0.00 0.00 0.00 65 1014.3
20260507093014 68 169 0.0 0.0 0.00 0.00 0.00 65 1014.2
20260507092807 68 169 0.0 0.0 0.00 0.00 0.00 65 1014.2
20260507092606 68 169 0.0 0.0 0.00 0.00 0.00 65 1014.3
20260507092407 68 169 0.0 0.0 0.00 0.00 0.00 64 1014.3
20260507092206 68 169 0.0 0.0 0.00 0.00 0.00 63 1014.3
20260507092101 68 169 0.0 0.0 0.00 0.00 0.00 64 1014.3
20260507092009 68 169 0.0 0.0 0.00 0.00 0.00 65 1014.3
20260507091805 68 169 0.0 0.0 0.00 0.00 0.00 65 1014.2
20260507091606 68 169 0.0 0.0 0.00 0.00 0.00 65 1014.3
20260507091507 68 169 0.0 0.0 0.00 0.00 0.00 65 1014.2
20260507091101 68 169 0.0 0.0 0.00 0.00 0.00 64 1014.3
20260507091012 68 188 0.0 0.0 0.00 0.00 0.00 64 1014.3
20260507090914 68 188 0.0 0.0 0.00 0.00 0.00 63 1014.3
20260507090605 68 296 0.0 0.0 0.00 0.00 0.00 62 1014.3
20260507090406 68 296 0.0 0.0 0.00 0.00 0.00 59 1014.2
20260507090206 68 296 0.0 0.0 0.00 0.00 0.00 59 1014.3
20260507090101 68 296 0.0 0.0 0.00 0.00 0.00 58 1014.2
20260507090009 68 296 0.0 0.0 0.00 0.00 0.00 59 1014.2
20260507085911 69 296 0.0 0.0 0.00 0.00 0.00 58 1014.2
20260507085818 69 296 0.0 0.0 0.00 0.00 0.00 59 1014.1
20260507085437 69 296 0.0 0.0 0.00 0.00 0.00 59 1014.0
20260507085316 69 296 0.0 0.0 0.00 0.00 0.00 58 1014.0
20260507085246 69 296 0.0 0.0 0.00 0.00 0.00 57 1014.0
20260507084806 69 296 0.0 0.0 0.00 0.00 0.00 56 1014.0
20260507084655 69 296 0.0 0.0 0.00 0.00 0.00 55 1014.0
20260507084604 69 296 0.0 0.0 0.00 0.00 0.00 55 1014.0
20260507084240 69 296 0.0 0.0 0.00 0.00 0.00 57 1013.9
20260507084213 69 296 0.0 0.0 0.00 0.00 0.00 57 1013.8
20260507084123 69 76 0.0 0.0 0.00 0.00 0.00 57 1013.7
20260507083407 69 92 0.0 0.0 0.00 0.00 0.00 56 1013.5
20260507083207 69 92 0.0 0.0 0.00 0.00 0.00 57 1013.5
20260507083111 69 93 0.0 0.0 0.00 0.00 0.00 57 1013.5
20260507083039 69 92 0.0 0.0 0.00 0.00 0.00 57 1013.5
20260507082945 69 92 0.0 0.0 0.00 0.00 0.00 57 1013.5
20260507082637 69 93 0.0 0.0 0.00 0.00 0.00 58 1013.4
20260507082545 69 93 0.0 0.0 0.00 0.00 0.00 58 1013.4
20260507082450 69 93 0.0 0.0 0.00 0.00 0.00 57 1013.3
20260507082419 69 93 0.0 0.0 0.00 0.00 0.00 58 1013.3
20260507081611 69 93 0.0 0.0 0.00 0.00 0.00 59 1013.2
20260507081459 69 93 0.0 0.0 0.00 0.00 0.00 60 1013.1
20260507081412 69 93 0.0 0.0 0.00 0.00 0.00 60 1013.1
20260507081342 69 93 0.0 0.0 0.00 0.00 0.00 61 1013.1
20260507081319 69 93 0.0 0.0 0.00 0.00 0.00 61 1013.1
20260507081221 69 93 0.0 0.0 0.00 0.00 0.00 61 1013.1
20260507080205 68 93 0.0 0.0 0.00 0.00 0.00 62 1013.0
20260507080008 68 93 0.0 0.0 0.00 0.00 0.00 62 1013.1
20260507075818 68 93 0.0 0.0 0.00 0.00 0.00 61 1013.0
20260507075717 68 93 0.0 0.0 0.00 0.00 0.00 61 1012.9
20260507075624 68 93 0.0 0.0 0.00 0.00 0.00 62 1013.0
20260507075251 68 92 0.0 0.0 0.00 0.00 0.00 63 1012.8
20260507075154 68 93 0.0 0.0 0.00 0.00 0.00 63 1012.9
20260507075058 68 93 0.0 0.0 0.00 0.00 0.00 65 1012.8
20260507075009 68 93 0.0 0.0 0.00 0.00 0.00 66 1012.8
20260507074708 68 93 0.0 0.0 0.00 0.00 0.00 66 1012.8
20260507074340 67 92 0.0 0.0 0.00 0.00 0.00 66 1012.7
20260507074314 67 92 0.0 0.0 0.00 0.00 0.00 66 1012.7
20260507073915 67 93 0.0 0.0 0.00 0.00 0.00 66 1012.7
20260507073524 67 93 0.0 0.0 0.00 0.00 0.00 68 1012.8
20260507072912 67 93 0.0 0.0 0.00 0.00 0.00 68 1012.7
20260507072818 67 93 0.0 0.0 0.00 0.00 0.00 68 1012.7
20260507072406 67 93 0.0 0.0 0.00 0.00 0.00 68 1012.6
20260507072207 67 93 0.0 0.0 0.00 0.00 0.00 68 1012.6
20260507072104 66 93 0.0 0.0 0.00 0.00 0.00 69 1012.6
20260507072006 66 93 0.0 0.0 0.00 0.00 0.00 69 1012.6
20260507071807 66 92 0.0 0.0 0.00 0.00 0.00 69 1012.7
20260507071606 66 92 0.0 0.0 0.00 0.00 0.00 69 1012.7
20260507071407 66 92 0.0 0.0 0.00 0.00 0.00 69 1012.7
20260507071207 66 92 0.0 0.0 0.00 0.00 0.00 69 1012.7
20260507071101 66 92 0.0 0.0 0.00 0.00 0.00 69 1012.7
20260507071007 66 92 0.0 0.0 0.00 0.00 0.00 70 1012.7
20260507070815 66 92 0.0 0.0 0.00 0.00 0.00 70 1012.7
20260507070721 66 92 0.0 0.0 0.00 0.00 0.00 70 1012.6
20260507070619 66 140 0.0 0.0 0.00 0.00 0.00 70 1012.6
20260507070527 66 140 0.0 0.0 0.00 0.00 0.00 70 1012.7
20260507065909 65 255 0.0 0.0 0.00 0.00 0.00 70 1012.7
20260507065816 65 255 0.0 0.0 0.00 0.00 0.00 70 1012.6
20260507065507 65 255 0.0 0.0 0.00 0.00 0.00 70 1012.7
20260507065125 65 255 0.0 0.0 0.00 0.00 0.00 70 1012.7
20260507065007 65 255 0.0 0.0 0.00 0.00 0.00 70 1012.7
20260507064805 65 255 0.0 0.0 0.00 0.00 0.00 69 1012.7
20260507064606 65 257 0.0 0.0 0.00 0.00 0.00 70 1012.8
20260507064408 65 257 0.0 0.0 0.00 0.00 0.00 70 1012.7
20260507064206 65 257 0.0 0.0 0.00 0.00 0.00 70 1012.8
20260507064102 65 257 0.0 0.0 0.00 0.00 0.00 69 1012.7
20260507064007 65 257 0.0 0.0 0.00 0.00 0.00 69 1012.7
20260507063808 64 257 0.0 0.0 0.00 0.00 0.00 69 1012.7
20260507063605 64 257 0.0 0.0 0.00 0.00 0.00 70 1012.7
20260507063405 64 257 0.0 0.0 0.00 0.00 0.00 70 1012.7
20260507063207 64 257 0.0 0.0 0.00 0.00 0.00 69 1012.7
20260507063104 64 257 0.0 0.0 0.00 0.00 0.00 69 1012.8
20260507063007 64 257 0.0 0.0 0.00 0.00 0.00 69 1012.8
20260507062833 64 257 0.0 0.0 0.00 0.00 0.00 69 1012.8
20260507062732 65 257 0.0 0.0 0.00 0.00 0.00 68 1012.8
20260507062338 65 257 0.0 0.0 0.00 0.00 0.00 68 1012.7
20260507062306 65 257 0.0 0.0 0.00 0.00 0.00 69 1012.8
20260507062241 65 257 0.0 0.0 0.00 0.00 0.00 69 1012.7
20260507062153 65 257 0.0 0.0 0.00 0.00 0.00 68 1012.8
20260507061406 65 257 0.0 0.0 0.00 0.00 0.00 69 1012.7
20260507061205 65 257 0.0 0.0 0.00 0.00 0.00 69 1012.8
20260507061102 65 257 0.0 0.0 0.00 0.00 0.00 69 1012.8
20260507061009 65 257 0.0 0.0 0.00 0.00 0.00 68 1012.8
20260507060812 65 257 0.0 0.0 0.00 0.00 0.00 68 1012.8
20260507060708 65 257 0.0 0.0 0.00 0.00 0.00 68 1012.7
20260507060622 65 257 0.0 0.0 0.00 0.00 0.00 68 1012.7
20260507060528 65 257 0.0 0.0 0.00 0.00 0.00 69 1012.7
20260507060226 65 257 0.0 0.0 0.00 0.00 0.00 68 1012.7
20260507060138 65 257 0.0 0.0 0.00 0.00 0.00 68 1012.6
20260507055405 65 257 0.0 0.0 0.00 0.00 0.00 68 1012.6
20260507055206 65 257 0.0 0.0 0.00 0.00 0.00 68 1012.7
20260507055103 65 257 0.0 0.0 0.00 0.00 0.00 68 1012.7
20260507055008 65 257 0.0 0.0 0.00 0.00 0.00 68 1012.7
20260507054805 65 257 0.0 0.0 0.00 0.00 0.00 68 1012.7
20260507054605 65 257 0.0 0.0 0.00 0.00 0.00 67 1012.6
20260507054408 65 257 0.0 0.0 0.00 0.00 0.00 67 1012.6
20260507054206 64 257 0.0 0.0 0.00 0.00 0.00 67 1012.6
20260507054131 64 257 0.0 0.0 0.00 0.00 0.00 67 1012.6
20260507054107 64 257 0.0 0.0 0.00 0.00 0.00 66 1012.6
20260507054011 64 257 0.0 0.0 0.00 0.00 0.00 67 1012.6
20260507053705 64 257 0.0 0.0 0.00 0.00 0.00 67 1012.6
20260507053311 64 257 0.0 0.0 0.00 0.00 0.00 66 1012.6
20260507053244 64 257 0.0 0.0 0.00 0.00 0.00 66 1012.5
20260507052808 64 257 0.0 0.0 0.00 0.00 0.00 66 1012.5
20260507052629 64 257 0.0 0.0 0.00 0.00 0.00 66 1012.4
20260507052537 64 257 0.0 0.0 0.00 0.00 0.00 66 1012.4
20260507052443 64 257 0.0 0.0 0.00 0.00 0.00 66 1012.4
20260507052415 63 257 0.0 0.0 0.00 0.00 0.00 66 1012.4
20260507052350 63 257 0.0 0.0 0.00 0.00 0.00 66 1012.4
20260507052248 63 257 0.0 0.0 0.00 0.00 0.00 67 1012.4
20260507052200 63 257 0.0 0.0 0.00 0.00 0.00 67 1012.4
20260507051828 63 257 0.0 0.0 0.00 0.00 0.00 68 1012.3
20260507051456 62 257 0.0 0.0 0.00 0.00 0.00 68 1012.2
20260507051429 62 257 0.0 0.0 0.00 0.00 0.00 68 1012.3
20260507050405 62 257 0.0 0.0 0.00 0.00 0.00 69 1012.1
20260507050207 62 257 0.0 0.0 0.00 0.00 0.00 70 1012.2
20260507050104 62 257 0.0 0.0 0.00 0.00 0.00 70 1012.1
20260507050009 61 257 0.0 0.0 0.00 0.00 0.00 70 1012.1
20260507045808 61 257 0.0 0.0 0.00 0.00 0.00 71 1012.1
20260507045606 61 257 0.0 0.0 0.00 0.00 0.00 71 1012.1
20260507045408 61 257 0.0 0.0 0.00 0.00 0.00 71 1012.1
20260507045205 61 257 0.0 0.0 0.00 0.00 0.00 71 1012.1
20260507045103 61 257 0.0 0.0 0.00 0.00 0.00 71 1012.0
20260507045007 61 257 0.0 0.0 0.00 0.00 0.00 71 1012.1
20260507044805 60 257 0.0 0.0 0.00 0.00 0.00 71 1012.1
20260507044606 60 257 0.0 3.0 0.00 0.00 0.00 71 1012.1
20260507044414 60 257 1.0 4.0 0.00 0.00 0.00 71 1012.0
20260507044321 60 259 1.0 6.0 0.00 0.00 0.00 71 1012.0
20260507044251 60 259 1.0 6.0 0.00 0.00 0.00 71 1012.0
20260507044224 60 259 1.0 6.0 0.00 0.00 0.00 71 1011.9
20260507043819 60 260 0.0 6.0 0.00 0.00 0.00 72 1012.0
20260507043406 60 260 0.0 6.0 0.00 0.00 0.00 72 1012.0
20260507043317 60 260 0.0 2.0 0.00 0.00 0.00 72 1011.9
20260507043246 60 260 0.0 2.0 0.00 0.00 0.00 72 1011.9
20260507042807 60 260 0.0 0.0 0.00 0.00 0.00 72 1011.9
20260507042606 59 260 0.0 0.0 0.00 0.00 0.00 72 1011.9
20260507042407 59 260 0.0 0.0 0.00 0.00 0.00 72 1011.9
20260507042206 59 260 0.0 0.0 0.00 0.00 0.00 72 1012.0
20260507042101 59 260 0.0 0.0 0.00 0.00 0.00 72 1012.0
20260507042009 59 260 0.0 0.0 0.00 0.00 0.00 72 1011.9
20260507041807 59 260 0.0 4.0 0.00 0.00 0.00 72 1012.0
20260507041606 59 260 0.0 4.0 0.00 0.00 0.00 72 1011.9
20260507041407 59 261 0.0 4.0 0.00 0.00 0.00 72 1012.0
20260507041207 59 261 0.0 4.0 0.00 0.00 0.00 72 1012.0
20260507041102 59 261 0.0 4.0 0.00 0.00 0.00 72 1011.9
20260507041007 59 261 0.0 4.0 0.00 0.00 0.00 72 1011.9
20260507040807 59 261 0.0 3.0 0.00 0.00 0.00 72 1011.9
20260507040607 59 261 0.0 3.0 0.00 0.00 0.00 72 1011.9
20260507040408 59 261 0.0 3.0 0.00 0.00 0.00 72 1011.8
20260507040207 59 261 0.0 4.0 0.00 0.00 0.00 72 1011.8
20260507040124 59 261 0.0 4.0 0.00 0.00 0.00 72 1011.8
20260507040041 59 261 0.0 4.0 0.00 0.00 0.00 72 1011.8
20260507035948 59 261 1.0 4.0 0.00 0.00 0.00 72 1011.8
20260507035639 59 261 1.0 4.0 0.00 0.00 0.00 72 1011.7
20260507035550 59 261 1.0 4.0 0.00 0.00 0.00 72 1011.8
20260507035457 59 261 1.0 4.0 0.00 0.00 0.00 73 1011.8
20260507035423 59 261 1.0 4.0 0.00 0.00 0.00 73 1011.7
20260507035053 59 236 1.0 5.0 0.00 0.00 0.00 73 1011.7
20260507034954 59 223 1.0 5.0 0.00 0.00 0.00 73 1011.6
20260507034906 59 259 1.0 5.0 0.00 0.00 0.00 73 1011.6
20260507034504 59 259 2.0 6.0 0.00 0.00 0.00 73 1011.7
20260507033618 59 239 1.0 6.0 0.00 0.00 0.00 73 1011.7
20260507033509 59 274 1.0 6.0 0.00 0.00 0.00 73 1011.6
20260507033413 59 243 0.0 6.0 0.00 0.00 0.00 73 1011.6
20260507033344 59 262 0.0 4.0 0.00 0.00 0.00 73 1011.6
20260507032611 59 259 0.0 4.0 0.00 0.00 0.00 73 1011.5
20260507032554 59 259 0.0 4.0 0.00 0.00 0.00 73 1011.5
20260507032353 58 259 1.0 4.0 0.00 0.00 0.00 73 1011.5
20260507032216 58 238 1.0 4.0 0.00 0.00 0.00 73 1011.6
20260507032143 58 237 1.0 4.0 0.00 0.00 0.00 73 1011.6
20260507032055 58 236 1.0 4.0 0.00 0.00 0.00 73 1011.6
20260507031613 58 238 1.0 4.0 0.00 0.00 0.00 73 1011.6
20260507031552 58 234 1.0 4.0 0.00 0.00 0.00 73 1011.6
20260507031349 58 248 1.0 4.0 0.00 0.00 0.00 73 1011.5
20260507031151 58 260 1.0 6.0 0.00 0.00 0.00 73 1011.5
20260507031103 58 259 1.0 6.0 0.00 0.00 0.00 73 1011.5
20260507030949 58 259 1.0 6.0 0.00 0.00 0.00 73 1011.5
20260507030746 58 223 1.0 6.0 0.00 0.00 0.00 73 1011.6
20260507030601 58 263 2.0 6.0 0.00 0.00 0.00 73 1011.5
20260507030543 58 263 2.0 6.0 0.00 0.00 0.00 73 1011.5
20260507030343 58 255 2.0 6.0 0.00 0.00 0.00 73 1011.6
20260507030143 58 257 3.0 6.0 0.00 0.00 0.00 73 1011.5
20260507030101 58 252 3.0 6.0 0.00 0.00 0.00 73 1011.5
20260507025957 58 255 3.0 6.0 0.00 0.00 0.00 73 1011.5
20260507025856 58 246 3.0 6.0 0.00 0.00 0.00 73 1011.5
20260507025541 58 263 3.0 7.0 0.00 0.00 0.00 73 1011.5
20260507025341 58 266 3.0 7.0 0.00 0.00 0.00 73 1011.5
20260507025142 58 263 3.0 7.0 0.00 0.00 0.00 73 1011.4
20260507025101 58 256 3.0 7.0 0.00 0.00 0.00 73 1011.5
20260507024943 58 255 3.0 7.0 0.00 0.00 0.00 72 1011.4
20260507024814 59 262 3.0 7.0 0.00 0.00 0.00 72 1011.5
20260507024732 59 255 2.0 7.0 0.00 0.00 0.00 72 1011.4
20260507024712 59 260 2.0 7.0 0.00 0.00 0.00 72 1011.4
20260507024153 59 257 2.0 7.0 0.00 0.00 0.00 72 1011.4
20260507024133 59 258 2.0 7.0 0.00 0.00 0.00 72 1011.5
20260507024047 59 246 2.0 7.0 0.00 0.00 0.00 72 1011.4
20260507023605 59 253 1.0 5.0 0.00 0.00 0.00 72 1011.4
20260507023536 59 252 1.0 5.0 0.00 0.00 0.00 71 1011.4
20260507023335 59 244 1.0 5.0 0.00 0.00 0.00 71 1011.3
20260507023136 59 230 1.0 5.0 0.00 0.00 0.00 71 1011.3
20260507023103 59 230 1.0 5.0 0.00 0.00 0.00 71 1011.4
20260507022934 60 243 1.0 5.0 0.00 0.00 0.00 71 1011.4
20260507022737 60 244 1.0 4.0 0.00 0.00 0.00 71 1011.4
20260507022656 60 232 1.0 4.0 0.00 0.00 0.00 71 1011.3
20260507022632 60 232 1.0 4.0 0.00 0.00 0.00 71 1011.3
20260507022543 60 232 1.0 4.0 0.00 0.00 0.00 71 1011.3
20260507022439 60 232 1.0 4.0 0.00 0.00 0.00 71 1011.4
20260507022353 60 232 1.0 4.0 0.00 0.00 0.00 71 1011.4
20260507021335 60 235 0.0 3.0 0.00 0.00 0.00 71 1011.4
20260507021135 60 235 0.0 3.0 0.00 0.00 0.00 71 1011.4
20260507021103 60 235 0.0 3.0 0.00 0.00 0.00 71 1011.3
20260507020934 60 235 0.0 1.0 0.00 0.00 0.00 71 1011.4
20260507020734 60 235 0.0 1.0 0.00 0.00 0.00 71 1011.4
20260507020606 60 235 0.0 1.0 0.00 0.00 0.00 71 1011.4
20260507020535 60 235 0.0 1.0 0.00 0.00 0.00 71 1011.4
20260507020444 60 235 0.0 3.0 0.00 0.00 0.00 71 1011.3
20260507020353 60 235 0.0 3.0 0.00 0.00 0.00 72 1011.4
20260507020042 60 235 0.0 3.0 0.00 0.00 0.00 72 1011.4
20260507015601 59 235 0.0 3.0 0.00 0.00 0.00 72 1011.4
20260507015527 59 235 0.0 3.0 0.00 0.00 0.00 72 1011.4
20260507015328 59 235 1.0 5.0 0.00 0.00 0.00 72 1011.3
20260507015222 59 235 1.0 5.0 0.00 0.00 0.00 72 1011.3
20260507014720 59 235 1.0 5.0 0.00 0.00 0.00 72 1011.3
20260507014603 59 235 1.0 5.0 0.00 0.00 0.00 72 1011.3
20260507014525 59 235 1.0 5.0 0.00 0.00 0.00 72 1011.3
20260507014433 59 241 0.0 3.0 0.00 0.00 0.00 72 1011.3
20260507014109 59 242 0.0 3.0 0.00 0.00 0.00 72 1011.3
20260507014020 59 245 0.0 3.0 0.00 0.00 0.00 73 1011.3
20260507013602 59 283 0.0 0.0 0.00 0.00 0.00 73 1011.2
20260507013513 59 283 0.0 0.0 0.00 0.00 0.00 73 1011.2
20260507013416 59 283 0.0 0.0 0.00 0.00 0.00 72 1011.2
20260507013327 59 268 0.0 2.0 0.00 0.00 0.00 72 1011.2
20260507012916 59 267 0.0 2.0 0.00 0.00 0.00 72 1011.2
20260507012714 59 267 0.0 4.0 0.00 0.00 0.00 72 1011.3
20260507012603 59 265 0.0 4.0 0.00 0.00 0.00 72 1011.2
20260507012516 59 265 0.0 4.0 0.00 0.00 0.00 72 1011.2
20260507012416 59 265 1.0 4.0 0.00 0.00 0.00 72 1011.2
20260507012101 59 238 1.0 4.0 0.00 0.00 0.00 72 1011.2
20260507011938 59 237 1.0 4.0 0.00 0.00 0.00 72 1011.2
20260507011841 59 242 1.0 5.0 0.00 0.00 0.00 72 1011.3
20260507011508 59 242 1.0 5.0 0.00 0.00 0.00 72 1011.3
20260507011308 59 235 1.0 5.0 0.00 0.00 0.00 72 1011.3
20260507011111 59 235 0.0 5.0 0.00 0.00 0.00 72 1011.3
20260507011103 59 235 1.0 5.0 0.00 0.00 0.00 72 1011.3
20260507010910 59 239 1.0 5.0 0.00 0.00 0.00 72 1011.3
20260507010706 59 253 2.0 5.0 0.00 0.00 0.00 72 1011.2
20260507010603 59 253 2.0 7.0 0.00 0.00 0.00 72 1011.2
20260507010507 59 226 2.0 7.0 0.00 0.00 0.00 72 1011.3
20260507010412 59 225 2.0 7.0 0.00 0.00 0.00 72 1011.2
20260507010323 59 225 2.0 7.0 0.00 0.00 0.00 72 1011.2
20260507005907 59 239 1.0 7.0 0.00 0.00 0.00 72 1011.2
20260507005706 59 232 1.0 7.0 0.00 0.00 0.00 72 1011.2
20260507005601 59 212 1.0 4.0 0.00 0.00 0.00 72 1011.2
20260507005506 59 232 1.0 4.0 0.00 0.00 0.00 72 1011.2
20260507005307 60 240 0.0 4.0 0.00 0.00 0.00 72 1011.2
20260507005120 60 218 0.0 3.0 0.00 0.00 0.00 72 1011.3
20260507005105 60 218 0.0 3.0 0.00 0.00 0.00 72 1011.3
20260507004903 59 217 0.0 4.0 0.00 0.00 0.00 72 1011.3
20260507004701 60 217 0.0 4.0 0.00 0.00 0.00 72 1011.3
20260507004604 60 217 0.0 4.0 0.00 0.00 0.00 72 1011.2
20260507004508 60 211 0.0 4.0 0.00 0.00 0.00 72 1011.3
20260507004333 60 292 0.0 4.0 0.00 0.00 0.00 72 1011.2
20260507004249 60 292 0.0 4.0 0.00 0.00 0.00 72 1011.2
20260507004240 60 292 0.0 4.0 0.00 0.00 0.00 72 1011.2
20260507003806 60 229 1.0 4.0 0.00 0.00 0.00 72 1011.2
20260507003744 60 215 1.0 4.0 0.00 0.00 0.00 72 1011.1
20260507003249 60 215 1.0 5.0 0.00 0.00 0.00 72 1011.2
20260507003103 60 215 1.0 5.0 0.00 0.00 0.00 72 1011.1
20260507003046 60 215 1.0 5.0 0.00 0.00 0.00 72 1011.1
20260507002847 60 215 1.0 5.0 0.00 0.00 0.00 72 1011.1
20260507002646 60 231 1.0 5.0 0.00 0.00 0.00 72 1011.0
20260507002604 60 231 0.0 5.0 0.00 0.00 0.00 72 1011.2
20260507002447 60 232 0.0 3.0 0.00 0.00 0.00 72 1011.1
20260507002252 60 253 0.0 1.0 0.00 0.00 0.00 72 1011.1
20260507002210 60 250 0.0 1.0 0.00 0.00 0.00 72 1011.1
20260507002158 60 251 0.0 1.0 0.00 0.00 0.00 72 1011.1
20260507001641 60 259 0.0 1.0 0.00 0.00 0.00 72 1011.1
20260507001603 60 259 0.0 1.0 0.00 0.00 0.00 72 1011.1
20260507001443 60 259 0.0 7.0 0.00 0.00 0.00 73 1011.1
20260507001249 60 259 0.0 7.0 0.00 0.00 0.00 72 1011.1
20260507001208 60 259 1.0 7.0 0.00 0.00 0.00 73 1011.2
20260507001152 60 259 1.0 7.0 0.00 0.00 0.00 73 1011.2
20260507000726 60 259 1.0 7.0 0.00 0.00 0.00 73 1011.1
20260507000708 60 206 1.0 7.0 0.00 0.00 0.00 73 1011.2
20260507000632 59 205 2.0 7.0 0.00 0.00 0.00 73 1011.2
20260507000539 59 192 2.0 7.0 0.00 0.00 0.00 74 1011.3
20260507000459 59 213 2.0 7.0 0.00 0.00 0.00 74 1011.3
20260506235831 60 275 1.0 7.0 0.00 0.00 0.00 74 1011.2
20260506235437 60 236 1.0 5.0 0.00 0.00 0.00 74 1011.1
20260506235236 60 242 0.0 4.0 0.00 0.00 0.00 74 1011.1
20260506235101 60 288 0.0 4.0 0.00 0.00 0.00 73 1011.1
20260506235039 60 292 0.0 2.0 0.00 0.00 0.00 73 1011.1
20260506234835 60 292 0.0 2.0 0.00 0.00 0.00 73 1011.0
20260506234636 60 297 0.0 2.0 0.00 0.00 0.00 73 1011.0
20260506234604 60 298 0.0 2.0 0.00 0.00 0.00 73 1011.0
20260506234435 60 320 0.0 1.0 0.00 0.00 0.00 73 1011.0
20260506234235 60 321 0.0 0.0 0.00 0.00 0.00 72 1011.0
20260506234104 60 321 0.0 0.0 0.00 0.00 0.00 72 1011.0
20260506234042 60 321 0.0 0.0 0.00 0.00 0.00 73 1011.0
20260506233833 60 321 0.0 0.0 0.00 0.00 0.00 72 1011.0
20260506233634 61 321 0.0 2.0 0.00 0.00 0.00 72 1011.0
20260506233601 61 321 0.0 2.0 0.00 0.00 0.00 73 1010.9
20260506233433 61 321 0.0 2.0 0.00 0.00 0.00 73 1011.0
20260506233335 61 321 0.0 4.0 0.00 0.00 0.00 72 1011.1
20260506233258 61 221 0.0 4.0 0.00 0.00 0.00 72 1011.0
20260506233236 61 221 0.0 4.0 0.00 0.00 0.00 72 1011.0
20260506232602 61 225 0.0 4.0 0.00 0.00 0.00 72 1011.1
20260506232428 61 225 0.0 4.0 0.00 0.00 0.00 73 1011.1
20260506232225 61 235 0.0 1.0 0.00 0.00 0.00 73 1011.1
20260506232102 61 236 0.0 1.0 0.00 0.00 0.00 73 1011.0
20260506232024 61 236 0.0 1.0 0.00 0.00 0.00 73 1011.0
20260506231824 61 236 0.0 1.0 0.00 0.00 0.00 73 1011.0
20260506231729 61 235 0.0 1.0 0.00 0.00 0.00 73 1011.0
20260506231716 61 236 0.0 1.0 0.00 0.00 0.00 73 1011.1
20260506231251 61 235 0.0 0.0 0.00 0.00 0.00 74 1011.1
20260506231219 60 235 0.0 0.0 0.00 0.00 0.00 74 1011.1
20260506231155 60 235 0.0 0.0 0.00 0.00 0.00 74 1011.1
20260506231054 60 235 0.0 3.0 0.00 0.00 0.00 74 1011.1
20260506230934 60 235 0.0 3.0 0.00 0.00 0.00 75 1011.1
20260506230631 60 235 0.0 3.0 0.00 0.00 0.00 75 1011.2
20260506230535 60 235 0.0 3.0 0.00 0.00 0.00 75 1011.2
20260506225915 60 248 1.0 6.0 0.00 0.00 0.00 75 1011.3
20260506225825 60 248 2.0 6.0 0.00 0.00 0.00 75 1011.3
20260506225815 60 249 2.0 6.0 0.00 0.00 0.00 75 1011.4
20260506225732 60 249 2.0 6.0 0.00 0.00 0.00 75 1011.3
20260506225125 60 252 1.0 6.0 0.00 0.00 0.00 74 1011.4
20260506224614 61 262 0.0 3.0 0.00 0.00 0.00 74 1011.4
20260506224600 61 262 0.0 2.0 0.00 0.00 0.00 74 1011.4
20260506224412 61 232 0.0 2.0 0.00 0.00 0.00 74 1011.3
20260506224213 61 232 0.0 3.0 0.00 0.00 0.00 74 1011.3
20260506224100 61 232 0.0 3.0 0.00 0.00 0.00 74 1011.3
20260506224012 61 232 0.0 3.0 0.00 0.00 0.00 74 1011.3
20260506223812 61 232 0.0 3.0 0.00 0.00 0.00 74 1011.2
20260506223613 61 232 0.0 3.0 0.00 0.00 0.00 74 1011.3
20260506223558 61 232 0.0 3.0 0.00 0.00 0.00 74 1011.2
20260506223414 61 234 0.0 3.0 0.00 0.00 0.00 74 1011.3
20260506223214 61 234 0.0 4.0 0.00 0.00 0.00 74 1011.3
20260506223057 61 230 0.0 4.0 0.00 0.00 0.00 74 1011.3
20260506223013 61 247 0.0 4.0 0.00 0.00 0.00 74 1011.3
20260506222813 61 289 0.0 4.0 0.00 0.00 0.00 74 1011.3
20260506222613 61 289 0.0 4.0 0.00 0.00 0.00 74 1011.4
20260506222556 61 289 0.0 4.0 0.00 0.00 0.00 74 1011.3
20260506222412 61 290 0.0 4.0 0.00 0.00 0.00 74 1011.4
20260506222212 61 279 0.0 0.0 0.00 0.00 0.00 74 1011.4
20260506222056 61 271 0.0 0.0 0.00 0.00 0.00 74 1011.3
20260506222012 61 259 0.0 0.0 0.00 0.00 0.00 74 1011.3
20260506221813 61 231 0.0 0.0 0.00 0.00 0.00 74 1011.3
20260506221609 61 285 0.0 0.0 0.00 0.00 0.00 74 1011.3
20260506221553 61 285 0.0 0.0 0.00 0.00 0.00 74 1011.3
20260506221412 61 285 0.0 0.0 0.00 0.00 0.00 74 1011.2
20260506221209 61 285 0.0 0.0 0.00 0.00 0.00 74 1011.2
20260506221053 61 285 0.0 0.0 0.00 0.00 0.00 74 1011.2
20260506221008 61 285 0.0 0.0 0.00 0.00 0.00 74 1011.2
20260506220809 61 285 0.0 0.0 0.00 0.00 0.00 74 1011.2
20260506220717 62 263 0.0 4.0 0.00 0.00 0.00 74 1011.2
20260506220703 61 263 0.0 4.0 0.00 0.00 0.00 74 1011.2
20260506220617 62 263 0.0 4.0 0.00 0.00 0.00 73 1011.2
20260506220243 62 228 0.0 4.0 0.00 0.00 0.00 73 1011.3
20260506215806 62 248 0.0 4.0 0.00 0.00 0.00 73 1011.3
20260506215604 62 276 0.0 3.0 0.00 0.00 0.00 73 1011.2
20260506215548 62 286 0.0 3.0 0.00 0.00 0.00 73 1011.2
20260506215411 62 286 0.0 3.0 0.00 0.00 0.00 72 1011.3
20260506215316 62 286 0.0 3.0 0.00 0.00 0.00 72 1011.2
20260506215245 63 288 0.0 3.0 0.00 0.00 0.00 72 1011.2
20260506214806 63 259 0.0 0.0 0.00 0.00 0.00 71 1011.2
20260506214541 63 259 0.0 0.0 0.00 0.00 0.00 72 1011.2
20260506214406 63 250 0.0 0.0 0.00 0.00 0.00 72 1011.1
20260506214207 63 201 0.0 0.0 0.00 0.00 0.00 72 1011.2
20260506214041 63 201 0.0 0.0 0.00 0.00 0.00 72 1011.2
20260506214004 63 201 0.0 0.0 0.00 0.00 0.00 72 1011.2
20260506213802 63 201 0.0 5.0 0.00 0.00 0.00 72 1011.2
20260506213538 63 201 0.0 5.0 0.00 0.00 0.00 72 1011.1
20260506213359 63 201 0.0 5.0 0.00 0.00 0.00 72 1011.1
20260506213157 63 223 0.0 5.0 0.00 0.00 0.00 72 1011.1
20260506213038 63 186 0.0 5.0 0.00 0.00 0.00 72 1011.1
20260506212956 63 190 0.0 5.0 0.00 0.00 0.00 72 1011.2
20260506212856 63 222 0.0 0.0 0.00 0.00 0.00 72 1011.1
20260506212537 63 273 0.0 0.0 0.00 0.00 0.00 72 1011.1
20260506212353 63 273 0.0 0.0 0.00 0.00 0.00 72 1011.2
20260506212156 63 273 0.0 0.0 0.00 0.00 0.00 72 1011.2
20260506212037 63 273 0.0 0.0 0.00 0.00 0.00 72 1011.1
20260506211948 63 273 0.0 0.0 0.00 0.00 0.00 72 1011.2
20260506211801 63 273 0.0 0.0 0.00 0.00 0.00 72 1011.2
20260506211703 63 273 0.0 0.0 0.00 0.00 0.00 72 1011.2
20260506211618 63 273 0.0 0.0 0.00 0.00 0.00 72 1011.2
20260506211252 64 273 0.0 0.0 0.00 0.00 0.00 72 1011.2
20260506210915 64 273 0.0 0.0 0.00 0.00 0.00 72 1011.2
20260506210747 64 273 0.0 0.0 0.00 0.00 0.00 71 1011.2
20260506210406 64 273 0.0 0.0 0.00 0.00 0.00 71 1011.1
20260506210311 64 273 0.0 0.0 0.00 0.00 0.00 71 1011.2
20260506205936 64 273 0.0 0.0 0.00 0.00 0.00 71 1011.2
20260506205734 64 273 0.0 0.0 0.00 0.00 0.00 71 1011.2
20260506205534 64 273 0.0 0.0 0.00 0.00 0.00 70 1011.2
20260506205335 65 273 0.0 0.0 0.00 0.00 0.00 71 1011.2
20260506205134 65 272 0.0 0.0 0.00 0.00 0.00 70 1011.1
20260506205032 65 273 0.0 0.0 0.00 0.00 0.00 70 1011.1
20260506204941 65 273 0.0 0.0 0.00 0.00 0.00 70 1011.0
20260506204839 65 273 0.0 0.0 0.00 0.00 0.00 70 1011.0
20260506204747 65 272 0.0 0.0 0.00 0.00 0.00 70 1011.0
20260506204335 65 273 0.0 0.0 0.00 0.00 0.00 70 1011.0
20260506204136 65 273 0.0 0.0 0.00 0.00 0.00 70 1011.2
20260506204029 65 272 0.0 0.0 0.00 0.00 0.00 70 1011.2
20260506203935 65 273 0.0 0.0 0.00 0.00 0.00 70 1011.2
20260506203735 65 273 0.0 0.0 0.00 0.00 0.00 69 1011.1
20260506203550 65 273 0.0 0.0 0.00 0.00 0.00 69 1011.1
20260506203334 65 273 0.0 0.0 0.00 0.00 0.00 69 1011.1
20260506203137 65 273 0.0 0.0 0.00 0.00 0.00 69 1011.2
20260506203033 65 273 0.0 0.0 0.00 0.00 0.00 69 1011.2
20260506202934 65 273 0.0 0.0 0.00 0.00 0.00 69 1011.2
20260506202738 65 273 0.0 0.0 0.00 0.00 0.00 69 1011.2
20260506202536 66 273 0.0 0.0 0.00 0.00 0.00 69 1011.1
20260506202342 66 273 0.0 0.0 0.00 0.00 0.00 69 1011.1
20260506202240 66 273 0.0 0.0 0.00 0.00 0.00 69 1011.1
20260506202213 66 273 0.0 0.0 0.00 0.00 0.00 69 1011.1
20260506202144 66 273 0.0 0.0 0.00 0.00 0.00 69 1011.1
20260506202055 66 273 0.0 0.0 0.00 0.00 0.00 68 1011.0
20260506201343 66 273 0.0 0.0 0.00 0.00 0.00 68 1011.0
20260506201248 66 273 0.0 0.0 0.00 0.00 0.00 68 1011.1
20260506201222 66 273 0.0 0.0 0.00 0.00 0.00 68 1011.1
20260506201153 66 273 0.0 0.0 0.00 0.00 0.00 68 1011.0
20260506200759 66 273 0.0 0.0 0.00 0.00 0.00 68 1011.0
20260506200335 66 273 0.0 0.0 0.00 0.00 0.00 68 1011.1
20260506200137 66 273 0.0 0.0 0.00 0.00 0.00 68 1011.0
20260506200033 66 273 0.0 0.0 0.00 0.00 0.00 68 1011.0
20260506195934 66 273 0.0 0.0 0.00 0.00 0.00 68 1010.9
20260506195736 66 273 0.0 0.0 0.00 0.00 0.00 68 1011.0
20260506195538 66 273 0.0 0.0 0.00 0.00 0.00 68 1011.0
20260506195446 66 273 0.0 0.0 0.00 0.00 0.00 68 1010.9
20260506195355 66 273 0.0 0.0 0.00 0.00 0.00 68 1010.9
20260506195323 66 273 0.0 0.0 0.00 0.00 0.00 68 1010.9
20260506194639 66 273 0.0 0.0 0.00 0.00 0.00 68 1010.9
20260506194136 66 273 0.0 0.0 0.00 0.00 0.00 68 1010.9
20260506194035 66 273 0.0 0.0 0.00 0.00 0.00 68 1010.9
20260506193934 66 273 0.0 0.0 0.00 0.00 0.00 68 1010.9
20260506193733 66 273 0.0 0.0 0.00 0.00 0.00 68 1010.9
20260506193535 67 275 0.0 0.0 0.00 0.00 0.00 68 1010.9
20260506193336 67 275 0.0 0.0 0.00 0.00 0.00 68 1010.7
20260506193137 67 275 0.0 0.0 0.00 0.00 0.00 67 1010.7
20260506193030 67 273 0.0 0.0 0.00 0.00 0.00 67 1010.5
20260506192937 67 273 0.0 0.0 0.00 0.00 0.00 67 1010.6
20260506192734 67 273 0.0 0.0 0.00 0.00 0.00 67 1010.5
20260506192534 67 273 0.0 0.0 0.00 0.00 0.00 67 1010.5
20260506192406 67 272 0.0 0.0 0.00 0.00 0.00 67 1010.4
20260506192309 67 258 0.0 0.0 0.00 0.00 0.00 67 1010.4
20260506191942 67 258 1.0 7.0 0.00 0.00 0.00 67 1010.3
20260506191849 67 258 1.0 7.0 0.00 0.00 0.00 67 1010.2
20260506191746 67 257 1.0 7.0 0.00 0.00 0.00 66 1010.2
20260506191427 67 255 1.0 7.0 0.00 0.00 0.00 66 1010.1
20260506191333 67 257 1.0 7.0 0.00 0.00 0.00 66 1010.2
20260506191308 68 257 1.0 7.0 0.00 0.00 0.00 66 1010.2
20260506190936 68 269 1.0 6.0 0.00 0.00 0.00 66 1010.3
20260506190624 68 274 1.0 6.0 0.00 0.00 0.00 66 1010.2
20260506190532 68 271 1.0 6.0 0.00 0.00 0.00 65 1010.2
20260506190408 69 249 1.0 6.0 0.00 0.00 0.00 65 1010.2
20260506190045 69 245 1.0 6.0 0.00 0.00 0.00 64 1010.0
20260506185535 69 250 0.0 6.0 0.00 0.00 0.00 63 1010.0
20260506185341 70 259 0.0 6.0 0.00 0.00 0.00 63 1010.0
20260506185244 70 233 0.0 3.0 0.00 0.00 0.00 62 1010.0
20260506185215 70 288 0.0 3.0 0.00 0.00 0.00 62 1010.0
20260506184736 70 290 1.0 7.0 0.00 0.00 0.00 60 1010.0
20260506184535 70 273 2.0 11.0 0.00 0.00 0.00 60 1010.0
20260506184335 70 302 3.0 11.0 0.00 0.00 0.00 58 1010.0
20260506184145 70 308 4.0 11.0 0.00 0.00 0.00 58 1009.8
20260506184117 70 342 5.0 11.0 0.00 0.00 0.00 58 1009.8
20260506184041 70 308 6.0 11.0 0.00 0.00 0.00 58 1009.8
20260506183938 70 328 6.0 11.0 0.00 0.00 0.00 58 1009.8
20260506183838 70 351 6.0 12.0 0.00 0.00 0.00 59 1009.8
20260506183443 70 328 7.0 12.0 0.00 0.00 0.00 59 1009.7
20260506183416 70 323 7.0 12.0 0.00 0.00 0.00 59 1009.6
20260506183313 70 330 6.0 12.0 0.00 0.00 0.00 58 1009.6
20260506183219 70 318 6.0 12.0 0.00 0.00 0.00 59 1009.6
20260506183125 70 351 5.0 11.0 0.00 0.00 0.00 58 1009.6
20260506183035 70 296 4.0 10.0 0.00 0.00 0.00 59 1009.6
20260506182703 71 324 2.0 9.0 0.00 0.00 0.00 59 1009.6
20260506182636 71 305 2.0 9.0 0.00 0.00 0.00 59 1009.6
20260506182544 71 340 1.0 6.0 0.00 0.00 0.00 58 1009.5
20260506182444 71 335 1.0 5.0 0.00 0.00 0.00 58 1009.5
20260506182143 71 278 1.0 7.0 0.00 0.00 0.00 58 1009.5
20260506181821 71 351 1.0 7.0 0.00 0.00 0.00 58 1009.6
20260506180051 71 314 2.0 8.0 0.00 0.00 0.00 58 1009.5
20260506175935 71 312 2.0 8.0 0.00 0.00 0.00 58 1009.5
20260506175735 71 321 2.0 9.0 0.00 0.00 0.00 58 1009.4
20260506175554 71 332 2.0 9.0 0.00 0.00 0.00 58 1009.4
20260506175500 71 300 2.0 9.0 0.00 0.00 0.00 58 1009.5
20260506175408 71 312 2.0 9.0 0.00 0.00 0.00 58 1009.4
20260506175052 72 356 2.0 9.0 0.00 0.00 0.00 58 1009.4
20260506174945 72 324 2.0 9.0 0.00 0.00 0.00 58 1009.3
20260506174850 72 346 2.0 9.0 0.00 0.00 0.00 58 1009.3
20260506174134 72 307 3.0 9.0 0.00 0.00 0.00 58 1009.3
20260506174030 72 296 3.0 10.0 0.00 0.00 0.00 58 1009.1
20260506173935 72 334 3.0 10.0 0.00 0.00 0.00 58 1009.2
20260506173736 72 304 3.0 10.0 0.00 0.00 0.00 57 1009.2
20260506173532 72 332 4.0 10.0 0.00 0.00 0.00 57 1009.0
20260506173336 72 319 4.0 11.0 0.00 0.00 0.00 57 1009.1
20260506173137 72 332 3.0 11.0 0.00 0.00 0.00 57 1009.1
20260506173051 72 317 3.0 11.0 0.00 0.00 0.00 57 1009.0
20260506172949 72 339 3.0 11.0 0.00 0.00 0.00 57 1009.1
20260506172851 72 317 3.0 11.0 0.00 0.00 0.00 57 1009.0
20260506172752 72 336 2.0 11.0 0.00 0.00 0.00 57 1009.0
20260506172443 72 319 1.0 8.0 0.00 0.00 0.00 57 1009.0